Theta_e
312 314 313 313 316 316 320 317 319 323 322 321 314 315 318 323 323 323 322 320 320 319 313 311 312 313 313 312 310 309 314 314 316 315 317 311 316 310 311 321 320 322 322 323 333
311 314 314 311 315 316 319 317 319 323 323 321 321 320 322 321 322 319 321 321 321 322 322 311 311 312 312 312 311 313 313 313 312 312 313 312 313 312 314 318 319 323 326 330 335
311 312 313 314 314 316 320 318 319 322 323 320 319 320 320 321 321 321 321 322 323 325 323 312 312 312 314 313 311 310 312 310 313 311 311 312 311 310 313 316 318 321 327 330 332
311 313 314 313 315 316 319 319 317 321 324 322 319 322 322 322 332 322 325 323 323 326 319 313 312 313 317 323 312 313 311 310 311 310 311 313 309 311 312 314 312 316 327 330 332
309 310 314 315 314 314 317 320 318 319 324 324 322 323 318 313 319 311 312 323 324 323 319 314 315 314 315 314 312 312 312 310 309 309 310 310 310 311 311 310 312 320 329 331 332
310 308 310 313 315 314 315 318 319 317 321 326 325 324 314 321 322 317 310 312 322 319 315 314 313 314 315 312 314 313 312 310 309 309 310 311 311 310 311 314 322 327 328 330 332
308 309 309 311 314 315 315 316 320 316 318 324 325 316 312 322 317 313 310 311 321 317 309 312 313 316 316 318 315 313 315 313 311 309 310 310 312 311 309 316 322 327 327 328 330
308 309 309 307 310 312 315 315 316 316 317 323 323 312 316 317 310 311 312 315 314 312 311 311 313 314 315 312 311 313 313 322 313 309 309 311 315 312 308 312 317 325 326 327 327
306 307 308 308 307 310 315 315 318 316 317 321 316 311 317 309 311 313 312 314 312 309 311 312 314 312 312 310 312 309 314 313 315 308 309 311 313 311 307 310 311 319 324 326 327
305 305 307 308 307 309 315 315 319 316 318 318 314 315 310 308 310 311 312 312 308 307 308 309 309 313 310 313 317 312 312 311 314 313 308 308 310 311 306 307 310 310 319 323 326
304 304 306 306 307 308 312 315 319 317 315 318 313 313 310 308 310 308 310 309 307 308 309 307 311 314 312 314 313 313 311 310 309 311 310 309 307 309 307 305 305 305 306 314 323
305 307 306 306 305 307 310 315 316 316 317 309 312 306 306 309 309 306 310 308 309 312 307 308 312 309 309 307 308 308 310 310 308 307 307 308 307 307 305 306 305 305 304 305 308
304 306 305 305 305 306 308 316 316 316 317 312 310 309 307 307 311 307 307 305 311 307 308 310 309 307 308 307 307 307 307 308 310 307 306 307 307 307 307 304 304 303 304 304 306
304 305 304 305 304 306 307 316 316 314 316 314 311 312 308 307 309 307 306 307 307 311 306 308 306 307 307 308 307 308 306 307 307 308 309 305 309 307 306 305 304 305 304 305 305
304 304 304 304 305 306 309 313 315 312 321 312 311 310 309 314 309 308 306 306 306 305 306 309 305 306 308 307 306 308 304 306 307 306 305 304 305 305 304 304 304 304 303 305 306
304 303 303 302 303 303 305 313 311 315 318 312 310 310 310 308 308 307 307 304 304 306 305 306 304 306 307 305 306 303 304 303 301 303 307 305 306 306 305 306 306 305 304 306 306
302 304 303 301 304 303 304 309 316 320 308 311 311 310 311 308 309 309 308 305 307 308 308 305 305 304 303 304 303 304 307 309 309 308 309 303 303 308 306 304 304 306 305 302 300
302 303 302 302 302 304 304 306 317 315 313 308 309 310 311 309 309 310 309 308 305 305 306 310 310 304 303 305 305 305 307 309 310 308 306 302 306 307 304 303 302 302 301 301 300
303 303 303 302 302 303 300 309 316 313 309 309 310 312 311 309 309 308 309 308 307 303 307 309 307 304 305 304 306 305 306 305 305 293 304 304 302 302 304 304 302 301 301 302 300
302 301 302 299 302 298 302 308 310 308 307 310 313 312 313 310 310 310 309 308 308 304 304 305 308 306 306 305 305 305 305 308 306 305 306 304 303 305 305 304 302 302 301 300 299
301 302 305 304 303 301 305 310 308 306 308 309 307 310 310 310 311 310 310 308 307 304 304 304 307 307 306 306 306 305 306 305 306 307 308 304 304 300 303 302 302 301 300 301 300
299 302 302 302 303 302 307 307 307 307 306 306 306 306 309 310 309 310 309 311 306 306 305 305 307 308 307 306 305 306 306 307 309 306 303 304 306 301 300 301 301 300 301 300 300
299 301 300 302 304 305 306 308 307 308 307 307 306 306 307 309 310 308 308 306 306 307 307 307 308 308 310 308 306 306 304 306 303 304 305 307 308 301 298 300 302 300 301 300 300
300 303 299 297 299 305 308 308 309 308 307 306 305 305 307 308 307 308 307 306 306 307 310 308 307 311 311 308 306 308 306 304 306 307 307 307 307 305 305 305 304 304 302 301 298
297 301 297 301 302 305 308 308 310 309 308 307 306 306 306 307 308 307 306 306 307 309 309 308 311 307 305 306 307 308 308 306 307 308 307 308 306 304 302 302 304 303 305 304 300
297 299 298 302 303 306 307 308 309 309 308 308 307 306 305 306 307 307 306 306 307 306 307 305 306 305 305 305 305 306 307 307 307 307 307 307 304 303 304 300 300 301 302 303 304
294 294 298 304 304 306 307 307 308 309 307 307 306 305 305 305 304 305 306 305 306 307 307 307 305 304 310 306 306 306 307 306 307 306 307 307 307 303 303 301 302 302 301 301 301
Wind_Speed
24 25 26 21 22 22 27 25 26 26 23 25 33 20 10 9 5 7 7 8 8 8 4 6 3 5 4 4 3 3 4 2 4 5 5 3 5 0 1 5 2 5 4 2 19
22 29 27 25 25 23 28 26 28 28 26 26 25 25 14 10 6 10 11 16 18 10 3 5 3 3 3 2 2 4 4 8 4 4 2 2 4 8 5 3 3 2 2 8 21
20 24 28 26 22 24 26 28 28 29 30 32 30 25 22 13 3 9 20 18 16 10 9 6 6 3 3 2 1 4 5 5 3 3 1 1 1 5 7 3 7 9 8 15 19
17 16 32 28 27 23 22 29 28 31 32 33 33 27 19 17 9 4 14 21 20 14 12 8 4 4 4 4 3 1 4 6 1 2 2 2 3 4 6 6 2 7 14 18 19
11 12 11 28 29 28 21 28 30 31 34 36 33 31 21 5 8 4 7 20 22 20 18 7 4 3 4 3 4 2 2 5 1 3 3 1 5 5 7 4 3 9 13 16 19
11 12 17 16 22 29 26 21 31 31 32 39 40 37 11 9 10 8 6 14 23 22 15 14 8 8 4 4 5 3 5 2 1 2 2 2 2 1 4 5 5 8 11 12 19
10 13 16 14 15 24 28 26 29 34 32 35 37 36 8 18 8 13 12 17 25 23 8 12 10 7 7 4 4 4 2 4 2 1 2 4 2 8 4 5 6 7 7 8 14
12 12 14 14 19 16 30 32 28 36 34 33 38 21 5 14 8 15 15 18 20 15 17 9 10 5 3 4 4 4 3 1 4 5 2 6 6 9 6 7 9 8 7 7 10
13 10 12 16 14 22 28 36 27 37 35 34 26 9 5 14 11 15 18 22 22 11 13 10 8 3 5 7 3 4 3 6 4 5 3 3 6 2 4 6 8 7 7 7 8
18 14 12 16 14 19 18 30 32 33 32 27 10 4 4 8 14 16 15 30 10 11 6 4 3 3 2 2 5 6 4 4 5 3 3 1 8 6 4 7 8 6 7 8 9
20 18 15 13 12 20 12 12 9 9 12 9 14 5 12 13 22 9 22 15 7 5 6 5 6 10 10 12 4 5 4 5 3 4 3 7 9 13 6 5 7 8 8 9 13
17 15 12 10 14 18 21 11 17 10 12 4 10 1 5 16 7 7 28 9 7 10 7 5 15 6 9 7 6 3 3 4 3 1 3 4 10 10 5 7 7 10 9 12 7
16 14 10 9 12 12 21 24 37 23 3 4 3 2 5 6 14 17 16 7 18 11 13 10 8 10 9 6 7 4 5 4 5 2 2 3 7 9 8 5 6 7 9 6 12
16 14 11 7 4 3 7 24 33 19 4 7 8 4 5 10 4 3 12 8 6 14 8 5 5 12 7 7 7 7 6 4 4 2 4 1 6 5 8 11 6 11 9 14 13
18 15 12 11 3 6 9 19 32 6 7 15 9 3 6 18 17 7 5 4 12 9 9 10 10 10 11 10 9 7 6 6 3 2 2 2 3 7 3 5 9 12 15 16 17
17 17 14 13 15 20 25 20 17 7 7 6 9 12 11 4 5 6 4 5 6 6 6 5 1 10 11 4 8 10 7 6 4 2 4 7 7 5 6 9 8 10 14 18 16
17 19 20 20 3 13 11 7 9 13 9 9 9 16 24 4 9 23 16 8 9 10 10 3 2 2 6 8 4 5 7 1 1 1 6 1 2 10 7 10 9 12 10 7 7
17 17 19 19 17 7 3 3 11 16 10 5 12 24 16 15 7 21 19 13 7 5 9 12 7 9 5 8 9 9 8 5 7 4 4 1 7 6 9 11 8 9 8 4 6
14 12 11 18 17 7 3 5 6 20 11 15 20 26 9 9 9 11 19 22 15 9 8 11 6 1 3 5 11 5 7 8 6 2 3 5 7 9 12 15 4 10 5 10 9
11 5 7 16 18 13 2 9 6 8 13 22 15 14 15 26 12 17 22 21 17 10 1 6 5 2 3 6 4 9 12 5 1 3 4 5 5 7 6 9 7 9 8 8 8
8 3 3 24 27 3 3 5 6 5 19 14 10 12 13 22 16 19 21 3 13 8 3 6 5 2 5 8 11 4 7 2 5 5 5 1 6 9 9 5 6 7 7 8 7
4 3 13 13 4 3 4 5 7 17 4 5 5 5 19 26 13 20 15 16 14 15 8 2 5 4 6 1 2 2 7 11 8 5 2 3 8 5 8 5 4 8 6 4 4
3 2 5 4 4 5 3 7 5 16 17 8 6 4 15 17 10 9 14 6 14 17 16 7 1 4 4 3 2 9 2 11 6 3 7 5 9 2 6 6 4 6 5 3 4
3 2 1 1 3 7 5 5 4 13 4 5 8 10 16 8 3 14 9 8 16 16 12 12 3 7 11 3 8 6 8 7 7 3 7 18 11 3 6 4 3 3 6 5 7
1 3 2 3 4 7 11 8 5 10 2 4 4 15 13 7 19 6 6 5 7 12 6 7 17 3 4 3 8 5 11 14 18 29 12 25 18 10 9 7 4 4 3 4 6
5 3 2 2 7 5 9 7 8 9 8 11 15 21 12 12 22 14 10 5 6 3 6 3 1 4 3 1 4 4 11 21 28 24 26 19 7 3 12 4 5 6 7 8 6
3 1 1 7 5 8 7 5 7 6 6 9 9 9 9 6 9 9 7 9 14 13 5 7 6 4 10 3 6 3 24 20 21 19 23 22 10 7 6 9 11 11 8 9 8
Wind_Direction
245 229 228 247 253 250 228 225 219 211 199 196 197 197 214 213 203 210 220 192 178 151 133 128 104 109 90 85 79 135 73 171 219 163 240 146 176 47 32 118 205 169 150 171 159
245 235 235 238 246 251 229 221 215 212 207 190 188 191 210 216 237 257 206 181 178 188 180 140 124 91 55 88 56 95 131 210 202 210 197 207 212 166 149 120 223 164 65 137 153
248 246 230 224 239 247 229 218 216 213 207 193 195 189 202 214 337 243 231 203 191 186 194 125 115 92 96 114 136 173 180 197 225 226 207 184 221 182 134 208 207 197 158 163 167
247 251 232 228 231 241 237 219 218 213 208 200 190 192 196 189 209 189 212 214 214 202 173 129 62 102 133 163 162 163 210 158 168 136 104 213 138 206 205 214 298 197 154 165 178
252 249 257 231 230 237 245 220 217 215 209 204 193 194 154 211 252 170 176 185 188 186 181 135 120 111 162 175 119 208 219 162 162 254 214 161 235 222 234 246 30 146 152 176 185
239 233 244 240 224 233 241 238 219 212 208 194 192 185 154 206 233 199 178 166 178 181 168 143 177 172 150 202 169 212 188 156 146 265 147 198 331 157 268 138 130 160 177 181 188
231 228 232 241 236 230 234 242 218 213 209 206 201 172 181 199 213 200 184 182 179 180 145 176 158 165 142 152 197 106 112 348 203 245 148 165 306 236 188 151 169 192 191 189 196
231 230 241 249 238 260 230 234 238 212 204 204 185 175 210 201 194 181 170 161 161 168 173 144 140 109 150 114 68 109 64 73 226 172 236 136 263 274 201 173 202 200 201 201 205
235 237 241 250 246 253 229 235 227 206 198 184 166 167 210 175 184 172 169 154 159 145 160 150 94 107 352 120 105 45 169 202 289 205 159 172 239 280 163 219 229 209 203 210 222
234 245 239 245 250 251 228 210 211 193 189 160 173 95 216 200 155 158 157 147 128 125 94 104 105 127 112 152 187 167 195 206 201 201 116 80 266 258 204 200 237 232 218 214 225
236 239 247 247 248 258 264 228 176 168 204 161 183 154 133 144 146 150 148 126 108 118 150 174 169 189 170 200 193 156 149 192 224 227 172 211 234 263 218 232 226 238 233 232 225
219 227 236 252 250 257 269 212 182 152 182 95 175 206 169 145 123 163 152 130 145 162 125 132 205 177 159 186 155 149 177 237 299 120 156 273 259 247 200 229 217 221 224 232 238
219 225 230 245 260 248 297 193 181 148 160 135 202 192 171 151 165 173 167 138 163 151 177 175 177 163 155 158 160 163 165 191 212 20 229 315 269 234 240 220 235 240 240 223 225
208 222 224 205 255 215 276 214 169 163 158 184 171 219 223 141 78 142 175 134 156 175 130 178 158 159 152 174 140 176 203 167 181 101 234 91 279 272 234 234 212 235 234 241 230
194 205 215 212 176 153 246 215 179 106 205 154 156 134 243 163 132 207 201 65 155 154 149 193 153 153 179 178 154 208 147 150 121 149 359 313 298 278 6 262 250 238 235 233 238
190 204 196 208 226 223 246 201 146 163 207 153 136 158 181 219 132 127 136 54 122 99 58 165 138 164 179 118 145 146 84 55 56 81 266 205 194 246 203 215 224 233 229 228 235
196 197 198 204 268 222 259 274 185 206 152 157 165 157 180 183 125 164 170 163 154 144 172 125 190 152 130 96 53 107 113 41 307 235 232 352 236 257 263 244 220 242 260 239 237
196 198 209 212 226 234 184 221 234 159 173 165 153 155 179 149 110 172 168 178 236 125 140 166 205 176 180 161 158 168 153 159 196 205 252 22 239 242 237 276 260 229 241 251 243
187 204 218 225 222 162 79 246 224 161 160 141 150 164 131 168 132 151 183 196 189 179 150 172 198 11 148 133 141 187 192 163 110 55 36 229 289 290 268 270 274 275 219 237 258
155 192 228 222 200 108 171 247 258 149 126 135 151 182 162 181 141 168 183 204 195 177 231 180 115 353 139 97 42 175 148 138 111 175 255 274 274 234 281 263 314 270 247 255 243
137 174 176 167 147 117 198 246 268 209 139 150 145 176 170 177 173 186 187 203 176 140 62 143 98 193 148 208 167 137 180 128 133 170 182 252 258 217 227 270 280 287 255 230 240
155 167 138 146 134 140 210 195 283 177 154 125 103 92 167 174 161 190 192 190 173 160 154 189 112 144 186 237 196 204 176 176 188 208 241 132 253 225 218 224 213 265 280 246 213
149 139 40 187 155 159 153 213 270 188 170 155 137 156 158 167 170 169 182 189 168 168 174 174 160 91 41 325 184 214 214 189 103 92 198 156 258 204 208 231 232 244 265 253 182
121 167 64 105 292 153 147 225 213 221 181 98 113 108 131 156 194 178 159 182 178 181 168 158 128 158 197 215 133 174 187 173 167 181 201 230 220 322 244 229 213 245 235 217 197
90 196 210 172 213 175 155 200 186 189 230 132 83 152 145 155 195 172 139 108 177 184 139 148 207 122 44 162 161 175 182 184 197 225 194 250 227 212 238 189 219 223 182 210 209
145 165 197 180 135 146 181 182 161 195 183 189 161 168 159 162 189 177 133 146 158 72 137 39 237 105 6 28 138 170 191 199 212 217 234 246 263 222 224 250 220 208 209 233 232
125 150 253 144 168 172 173 166 170 191 245 230 137 134 178 180 115 148 134 152 156 159 142 143 124 109 225 155 102 340 217 206 223 215 228 233 237 183 223 238 259 266 260 251 219